Location: Hilde
(52.9479°N, 6.4449°E)
Time: 13:46:10
(UTC+00:00)

Cosmos 44 - Pass Details

Date: 15 May 2026
Orbit: 568 x 782 km, 65.1° (Epoch: 10 June)

Event Time Altitude Azimuth Distance (km) Brightness Sun altitude
Rises 20:50:06 0° 315° (NW) 3,276 9.0 -10.1°
Reaches altitude 10° 20:52:34 10° 320° (NW) 2,348 7.7 -10.3°
Maximum altitude 20:57:57 60° 40° (NE) 891 3.9 -10.8°
Enters shadow 21:02:46 12° 119° (ESE) 2,136 5.3 -11.2°
